设为首页收藏本站

Dj慢摇吧

 找回密码
 免费注册

QQ登录

只需一步,快速开始

扫一扫,访问微社区

收起/展开 收藏本版 |订阅

互动气氛爆点歌(Vip专用) 今日: 0|主题: 784|排名: 4 

请大家珍惜本版块资源!不要随意分享与传播!抓到直接封帐号!切行切珍惜!
作者 回复/查看 最后发表
全局置顶 隐藏置顶帖 预览 2018 抖音最火中英文(原版&舞曲版) 178首 版主推荐 digest  ...23456..8 djmy8 2018-7-13 7657025 Tina 2021-1-8 21:06
全局置顶 隐藏置顶帖 预览 抖音热播歌曲90首 attach_img digest  ...23456..9 djmy8 2018-5-4 8355793 wx_M6z8PU5s 2020-9-2 18:51
      
预览 海绵棒左右上下挥舞 加拍手爆点 digest djmy8 2021-2-21 530 dj阿祖 前天 22:21
预览 爆点颗粒荧光瓶上下+左右挥舞由慢到快再慢+ROCK拍手左右挥舞 digest djmy8 2021-2-21 717 dj阿祖 前天 22:20
预览 点空大互动Together-Momentum digest djmy8 2021-2-21 622 dj阿祖 前天 22:19
预览 RAVEkoushao - 150 - RAVE口哨版 - 150 digest djmy8 2021-2-21 78 dj阿祖 前天 22:18
预览 互动拍手We Are Young digest djmy8 2021-2-21 623 dj阿祖 前天 22:17
预览 The spectre唢呐HARD版本 digest djmy8 2021-2-21 513 dj阿祖 前天 22:16
预览 爆点2荧光棒挥舞+新版木头人 digest djmy8 2021-2-21 49 djlxw 前天 14:58
预览 准备摸腿下 甩头起颗粒 digest djmy8 2021-2-21 49 djlxw 前天 14:59
预览 大爆点 十月五号 bpm130-拍三下荧光棒+向上挥舞+双手持荧光棒左右慢加速挥舞手 digest djmy8 2021-2-21 513 dj阿祖 前天 22:15
预览 想要成为Rap Star吗_(MossW REMIX) digest djmy8 2021-2-21 510 djlxw 前天 19:07
预览 点飞 - 赶鸭子 digest djmy8 2021-2-21 47 djlxw 前天 19:07
预览 海绵棒 +rock拍手 +海绵棒 digest djmy8 2021-2-21 47 djlxw 前天 19:08
预览 网红歌 IKON - Love Scenario digest djmy8 2021-2-21 48 djlxw 前天 19:08
预览 声音互动Rezz - Lmfao - 唢呐 Girl LooK At That Body - 朝伟Edit And Remix digest djmy8 2021-2-21 49 djlxw 前天 19:10
预览 舞蹈颗粒忘川彼岸 digest djmy8 2021-2-21 419 djlxw 前天 19:10
预览 颗粒手抛纸蜘蛛丝 暴风雪 150 - 气氛 digest djmy8 2021-2-21 512 dj阿祖 前天 22:10
预览 小提琴开场 (GONGSTAR Bootleg) digest djmy8 2021-2-7 532 dj阿祖 2021-2-20 13:28
预览 耗子尾汁宝贝宝贝(DJ阿超 2K20 Remix) digest djmy8 2021-2-7 825 dj阿祖 2021-2-20 13:27
预览 爆点 手指灯 气氛共鸣拍手 草栏杆 digest djmy8 2021-2-7 622 dj阿祖 2021-2-20 13:26
预览 吹口哨Horurock (Beatrappa & Rude B Remix) digest djmy8 2021-2-7 517 dj阿祖 2021-2-20 13:26
预览 互动 落幕 挥旗 c02 手抛纸(大卫Remix) digest djmy8 2021-2-7 729 dj阿祖 2021-2-20 13:25
预览 Sea云 - 两只老虎 digest djmy8 2021-2-7 512 djcyx 2021-2-14 15:57
预览 爆点on my way 荧光瓶拍手 digest djmy8 2021-2-7 928 dj阿祖 2021-2-20 13:24
预览 爆点1互动Rock小提琴拍手 + 新版赶鸭子 digest djmy8 2021-2-7 618 dj阿祖 2021-2-20 13:23
预览 鸭子元素Da Tweekaz - No Ducks No Glory digest djmy8 2021-2-7 814 dj阿祖 2021-2-20 13:22
预览 颗粒手机灯+人妖暴风雪 digest djmy8 2021-2-7 818 dj阿祖 2021-2-20 13:21
预览 140- 声音互动Fired Force & Mc 芦健 - HEY HEY HEY & The Grid digest djmy8 2021-1-26 654 djlxw 2021-1-31 21:53
预览 150 - 拍手向左拍手向右Everbody Put Your Hands Up digest djmy8 2021-1-26 446 djsky 2021-2-7 21:35
预览 150 拍手向左拍手向右Everbody Put Your Hands Up digest djmy8 2021-1-26 644 dj阿祖 2021-2-20 13:20
预览 150 - 点飞 - 拍手互动 digest djmy8 2021-1-26 857 dj阿祖 2021-2-20 12:21
预览 150 - 气氛-互动-全民混搭 - 巴塞吼 大大大 857 digest djmy8 2021-1-26 769 dj阿祖 2021-2-20 12:20
预览 128-150 SKY组合气氛爆点 渣女收割机 digest djmy8 2021-1-26 643 dj阿祖 2021-2-20 12:19
预览 128-150 - 人声互动 Victor Niglio Remix digest djmy8 2021-1-26 656 dj阿祖 2021-2-20 12:19
预览 128 - 互动拍手 We Are Young digest djmy8 2021-1-8 5726 djlxw 2021-1-10 21:38
预览 150 - 气氛-互动-MushrooM - 大拍手EDM ( Hardstyle Mix ) digest djmy8 2021-1-8 7778 djlxw 2021-1-10 21:40
预览 150 - 气氛(不出-带我回家) digest djmy8 2021-1-8 9779 赫安吖 2021-2-10 15:57
预览 130-150 - 超级颗粒 digest djmy8 2021-1-8 6751 djlxw 2021-1-10 21:41
预览 150bpm - 声音大互动 - Tag team whoomp - 朝伟版 digest djmy8 2021-1-8 7760 djlonely 2021-1-14 16:01
预览 150-papa气氛怕怕 digest djmy8 2021-1-8 7766 djlxw 2021-1-10 21:41
预览 150bpm - Rover 拍手互动 digest djmy8 2021-1-8 6762 Kin_B9Vtc 2021-1-28 20:55
预览 150-爆点互动气氛 Bounce digest djmy8 2021-1-8 7772 Kin_B9Vtc 2021-1-28 20:52
预览 150bpm - Up Up de 鸭鸭地 - 朝伟版 digest djmy8 2021-1-8 6797 Kin_B9Vtc 2021-1-28 20:51
预览 150人声互动fuxk yeah digest djmy8 2021-1-8 8714 Kin_B9Vtc 2021-1-28 20:50
预览 150嘿嘿嘿 超气氛 Dany BPM - Crazy Fiesta digest djmy8 2021-1-8 7741 Kin_B9Vtc 2021-1-28 20:48
预览 150转80 - 中文共鸣反差 - 张芸京 - 偏爱 digest djmy8 2021-1-8 5719 Kin_B9Vtc 2021-1-28 20:45
预览 155最新气氛爆点 噢咧咧 哦啦啦拍手 digest djmy8 2021-1-8 6731 Kin_B9Vtc 2021-1-28 20:41
预览 160 - 声音手势互动【凤舞十天】 digest djmy8 2021-1-8 7707 Kin_B9Vtc 2021-1-28 20:36
预览 160-新气氛互动Rooler - ONETWO digest djmy8 2021-1-8 6737 Kin_B9Vtc 2021-1-28 20:32
预览 150bpm - 气氛爆点 digest djmy8 2021-1-8 7755 Kin_B9Vtc 2021-1-28 20:27
预览 75拍手+123停+草栏杆 We Will Rock You (Mashup) digest djmy8 2020-12-16 71868 djsky 2020-12-27 03:16
预览 75爆点 - 警报 Its Abduction Time digest djmy8 2020-12-16 81979 Kin_B9Vtc 2021-1-3 17:36
预览 160-新气氛硬核Scarra - Jump Up digest djmy8 2020-12-16 81812 Kin_B9Vtc 2021-1-3 17:38
预览 Tag te互动 digest djmy8 2020-12-16 81854 Kin_B9Vtc 2021-1-3 17:39
预览 2分02飞 最新气氛 digest djmy8 2020-12-16 61793 Kin_B9Vtc 2021-1-3 17:41
预览 Bpm150 泰国包大人 Tao Ngoi Sodinito Double Dribble digest djmy8 2020-12-16 71738 Kin_B9Vtc 2021-1-3 17:44
预览 My Girl 小脑袋瓜 Build up后不样MC说话 digest djmy8 2020-12-16 71470 Kin_B9Vtc 2021-1-3 17:49
预览 互动左右挥灯 4x8-130-The Flight (Extended Mix) digest djmy8 2020-12-16 61464 Kin_B9Vtc 2021-1-3 17:51
预览 S.I.A大金 - 宝石Gem-135 爱的恰恰&Stay Fly vs La Ba digest djmy8 2020-12-16 61140 Kin_B9Vtc 2021-1-3 17:52
预览 A-B-气氛互动-150 digest djmy8 2020-12-16 61102 Kin_B9Vtc 2021-1-3 17:55
预览 左右爆点互动 Momentum (VESK GREEN Speed Bounce Edit) digest djmy8 2020-12-16 81106 Kin_B9Vtc 2021-1-3 17:56
预览 古诗挥手 Alcoholu-CHN(Mashup) digest djmy8 2020-12-8 81430 djcyx 2020-12-21 01:08
预览 VA-摇摆互动(WOLF / P.D remix) digest djmy8 2020-12-8 71330 djlonely 2020-12-23 15:01
预览 互动拍手挥手 One Call Away digest djmy8 2020-12-8 51358 djligh000 2020-12-13 05:46
预览 拍手-SaberZ & ANG - Home Run digest djmy8 2020-12-8 71385 djcyx 2020-12-22 01:35
预览 栏杆-That Girl 抖音-大气拍手版 digest djmy8 2020-12-8 61259 djligh000 2020-12-15 13:21
预览 气氛-互动-说唱爱如潮水HARD气氛 [终结版] digest djmy8 2020-12-8 61234 ale1103399265 2021-1-19 17:22
预览 我是一颗跳跳糖-气氛互动 digest djmy8 2020-12-8 61277 djcyx 2020-12-22 01:34
预览 爆点互动气氛-拍手-气氛-爆点 Take Me Home digest djmy8 2020-12-8 61306 djcyx 2020-12-22 01:34
预览 爱河150 拍手 digest djmy8 2020-12-8 41217 Tina 2020-12-16 04:38
预览 新气氛硬核160Scarra - Jump Up digest djmy8 2020-11-29 81411 djcyx 2020-12-22 01:33
预览 拍手小颗粒 爱你三千遍 The Monster digest djmy8 2020-11-29 61412 djcyx 2020-12-21 14:03
预览 拍手人声互动 Dubstep digest djmy8 2020-11-29 81430 djcyx 2020-12-21 13:54
预览 螃蟹舞-拍手-左右挥手【Andrew edit】 digest djmy8 2020-11-29 81125 djcyx 2021-1-9 03:21
预览 植物大战僵尸 (7Grams&DiESi Bootleg digest djmy8 2020-11-29 8433 djlonely 2020-12-7 16:10
预览 气氛 中国鼓 Queen - We Will Rock You digest djmy8 2020-11-29 5427 新手注册2 2021-1-18 20:58
预览 青蛙跳Boing x I Dont Care (Hui x TONY OAT EDIT) digest djmy8 2020-11-29 7436 djlonely 2020-12-7 16:08
预览 气氛舞蹈(Hui x HKJERRY remix) digest djmy8 2020-11-29 9429 djcyx 2020-12-21 13:31
预览 独家气氛互动 digest  ...2 djmy8 2020-11-29 10447 djcyx 2020-12-21 13:53
预览 韩棒子棒子老虎 La Banda (Hui x DJ B.O.B EDIT) digest djmy8 2020-11-29 7436 djlxw 2020-12-2 19:57
预览 爆点互动气氛-拍手-气氛-爆点 Take Me Home digest djmy8 2020-11-13 8654 djcyx 2020-12-21 13:52
预览 超栏杆 酒醉的蝴蝶 digest  ...2 djmy8 2020-11-13 10635 Tina 2021-1-8 20:15
预览 加标 抖音Lisa 螃蟹舞+Step Dj.Bole 2020 Bounce Mashup digest djmy8 2020-11-13 7627 djcyx 2020-12-21 13:49
预览 颗粒-兔子舞 digest djmy8 2020-11-13 8569 djcyx 2020-12-21 13:38
预览 栏杆-That Girl 抖音-大气拍手版 digest djmy8 2020-11-13 8435 Kin_B9Vtc 2020-11-24 17:06
预览 螃蟹舞-拍手-左右挥手【Andrew edit】 digest djmy8 2020-11-13 7393 djligh000 2020-11-15 14:41
预览 气氛-互动-说唱爱如潮水HARD气氛 [终结版] digest djmy8 2020-11-13 6338 djligh000 2020-11-14 08:13
预览 阳光女孩阳光男孩( TG BOOTLEG) digest djmy8 2020-11-13 6382 djligh000 2020-11-14 08:14
预览 128-150 SKY组合气氛爆点 渣女收割机 digest djmy8 2020-11-13 7387 Tina 2020-12-16 04:41
预览 Lisa - 螃蟹舞 vs Dedede (apple mash ) digest djmy8 2020-11-13 6373 djcyx 2021-1-9 03:20
预览 爱河150 拍手 digest djmy8 2020-11-13 6382 djsky 2020-11-20 20:22
预览 极品 开心真Giao(PD Mashup) digest djmy8 2020-11-13 7379 djcaidefu 2020-11-15 11:08
预览 爆点互动气氛-后来遇见他 手机灯+暴风雪 digest  ...2 djmy8 2020-10-3 11842 Tina 2020-12-16 04:43
预览 爆点互动气氛- edc大气氛_缩混 digest  ...2 djmy8 2020-10-3 13887 Tina 2020-12-16 04:31
预览 爆点互动气氛- BOOM(Hands Clap)&We like 2 Party digest djmy8 2020-10-3 8560 djsky 2020-11-8 04:04
预览 爆点互动气氛--互动-hardstyle抖音热 digest djmy8 2020-10-3 8487 dj0818 2020-10-26 08:17
预览 爆点互动气氛- 共鸣+手机灯+拍手+草栏杆 digest  ...2 djmy8 2020-10-3 11525 Tina 2020-12-16 04:45
预览 爆点互动气氛- Osir - 0608十一点 气氛 digest djmy8 2020-10-3 8392 Tina 2020-12-16 04:32
预览 爆点互动气氛-128转150 - Ease My Mind (拍手互动) digest djmy8 2020-10-3 9363 djsky 2020-11-8 04:08
预览 爆点互动气氛-130-互动版本let-me-love-you digest djmy8 2020-10-3 6392 djcyx 2020-10-29 16:40
预览 爆点互动气氛-150啪手互动男声 Skin (Hardstyle Edit) digest djmy8 2020-10-3 7391 djsky 2020-11-9 11:08
预览 爆点互动气氛-150-拍手小颗粒 digest djmy8 2020-10-3 7362 djsky 2020-11-9 11:13
预览 爆点互动气氛-150 Bounce爆点 digest  ...2 djmy8 2020-9-16 12927 Bonnie心爷 2020-9-30 14:35
预览 爆点互动气氛-150超级玛丽-颗粒爆点气氛-DJ老鹰Mix digest djmy8 2020-9-16 8532 Bonnie心爷 2020-10-2 19:21
预览 爆点互动气氛-2020 爆点气氛思想 手势+声浪互嘿嘿 digest  ...2 djmy8 2020-9-16 15660 djsky 2020-11-9 11:19
预览 爆点互动气氛-Blackpink - How You Like That Bootleg digest djmy8 2020-9-16 9372 djcyx 2020-9-23 18:23
预览 爆点互动气氛-2020暴风雪 digest  ...2 djmy8 2020-9-16 10504 Bonnie心爷 2020-10-2 19:21
预览 爆点互动气氛-160 - 声音手势互动【凤舞十天】 - 朝伟版 digest djmy8 2020-9-16 8335 Bonnie心爷 2020-10-2 19:25
预览 爆点互动气氛-Country Roads-Country roads digest djmy8 2020-9-16 7332 Tina 2020-9-21 21:03
预览 爆点互动气氛-House Of House digest djmy8 2020-9-16 8355 djcyx 2020-9-23 18:25
预览 爆点互动气氛-Dimitri Vegas & Like Mike- 气氛舞蹈 digest djmy8 2020-9-16 9353 djsky 2020-11-9 11:27
预览 爆点互动气氛-Hardstyle气氛后来 digest  ...2 djmy8 2020-9-16 10397 djsky 2020-11-8 04:14
预览 爆点互动气氛-The spectre唢呐HARD版本 digest  ...2 djmy8 2020-9-16 11442 Bonnie心爷 2020-10-2 19:26
预览 爆点互动气氛-中国Hardstyle差不多先生 digest djmy8 2020-9-16 9296 Bonnie心爷 2020-9-30 14:38
预览 爆点互动气氛-intro-150-Gammer, Kayzo digest djmy8 2020-9-16 9304 Bonnie心爷 2020-9-30 14:40
预览 爆点互动气氛-if you-中韩两版手机灯 digest djmy8 2020-9-16 8323 Bonnie心爷 2020-9-30 14:42
预览 爆点互动气氛-Rhythm Master digest djmy8 2020-9-16 6292 dj阿祖 2020-9-19 11:10
预览 爆点互动气氛-M.A.D.R.A.S. - Woodoorave digest  ...2 djmy8 2020-9-16 10376 Bonnie心爷 2020-10-2 19:19
预览 爆点互动气氛-你就不要想起我 手机灯+暴风雪  ...2 djmy8 2020-9-9 10409 dj0818 2020-12-2 04:49
下一页 »

快速发帖

还可输入 80 个字符
您需要登录后才可以发帖 登录 | 免费注册

本版积分规则

QQ|小黑屋|手机版|Archiver|Dj慢摇吧 ( 浙ICP备13012325号  

GMT+8, 2021-3-2 02:45 , Processed in 0.059964 second(s), 14 queries .

Powered by Discuz! X3.2

© 2001-2013 Comsenz Inc.

返回顶部 返回版块